Wind_Speed
27 27 26 26 27 30 31 34 37 38 38 40 43 46 47 45 44 41 38 37 37 34 33 33 33 35 36 36 35 34 34 37 35 34 33 33 31 34 35 36 34 37 37 36 37
32 31 29 27 26 26 28 31 32 34 36 37 38 40 41 43 43 42 42 40 38 37 37 37 39 40 41 41 39 36 39 38 40 39 36 36 36 35 37 38 41 43 41 36 36
33 34 35 34 31 27 26 25 29 33 36 36 38 40 42 42 42 41 43 43 41 41 41 43 43 44 45 46 46 43 40 40 41 39 40 40 41 40 41 41 43 41 40 44 44
34 34 36 36 34 34 30 28 26 27 29 33 36 36 37 37 38 40 41 42 43 45 47 48 49 49 51 49 51 46 43 43 44 43 42 42 46 41 45 49 45 48 46 45 44
35 37 36 36 35 35 33 32 30 30 30 32 33 34 37 38 39 41 43 45 48 51 52 53 54 55 57 55 50 49 47 47 49 52 46 49 48 49 54 52 52 54 54 52 54
33 34 33 35 38 37 37 37 37 37 38 37 38 38 38 39 41 43 46 49 51 54 56 57 61 60 59 56 51 54 54 56 58 60 59 58 59 59 64 64 61 59 58 58 59
38 35 33 36 32 36 40 42 42 42 41 43 43 44 47 48 48 51 54 55 56 57 58 60 63 56 57 58 59 62 61 63 66 66 65 66 62 65 66 68 69 68 67 66 64
44 42 41 38 39 42 41 45 48 47 48 49 48 48 51 53 54 53 57 58 62 64 65 65 67 69 67 68 66 66 65 68 71 71 71 72 65 73 72 72 72 70 70 71 71
52 48 45 46 46 45 49 50 48 52 52 54 53 55 56 58 59 61 64 66 67 68 70 70 70 71 72 74 74 76 74 73 75 75 76 77 70 73 74 75 76 77 77 74 70
56 56 53 50 50 53 54 52 55 57 57 56 59 65 62 62 64 65 68 66 68 71 69 69 70 67 72 72 70 71 68 66 65 64 63 63 54 60 62 63 66 70 72 74 72
60 58 56 56 57 57 60 59 59 56 63 59 60 62 60 63 68 66 57 59 62 62 59 57 57 56 57 57 57 54 53 52 54 56 58 54 52 51 56 55 57 63 68 67 69
56 58 57 56 59 59 54 54 56 51 60 58 56 55 57 58 57 58 55 52 52 53 53 51 50 52 54 55 55 55 54 57 57 60 58 55 50 52 56 56 60 63 64 65 66
45 46 49 50 49 48 48 42 43 43 42 47 49 54 57 58 55 49 50 52 55 56 58 57 56 59 64 63 66 64 67 66 64 67 66 58 47 50 54 60 63 68 67 65 64
39 41 42 39 42 40 43 44 45 46 45 53 54 52 55 54 53 56 60 60 61 63 64 60 66 69 69 71 75 73 76 73 74 73 70 68 60 55 59 59 69 75 74 74 70
51 51 50 46 52 51 48 49 53 54 51 49 56 59 57 59 62 67 69 69 70 70 71 71 72 74 74 78 82 82 82 82 81 75 75 71 77 59 63 73 79 77 80 80 78
53 54 58 59 61 61 61 61 61 64 62 62 64 64 64 68 69 72 74 74 77 82 83 83 82 82 82 83 84 86 87 88 86 83 81 80 84 67 76 81 86 87 80 83 83
58 57 57 64 70 69 70 69 68 70 69 70 72 72 75 76 74 78 80 83 87 86 83 84 85 87 88 88 88 90 93 94 94 91 90 90 90 81 85 87 89 91 88 82 87
75 69 72 66 66 66 74 78 79 78 76 77 81 82 81 81 85 88 86 87 93 96 95 93 92 92 92 94 95 95 96 99 102 100 101 100 95 94 97 99 102 102 99 100 91
79 77 77 79 81 67 71 75 78 79 81 86 85 86 86 91 96 91 90 88 90 90 94 101 100 100 101 101 100 100 102 104 108 108 109 104 103 105 109 112 113 105 100 98 96
80 86 83 82 84 83 78 82 84 88 91 94 95 95 97 97 100 101 100 98 98 98 99 100 97 95 100 104 106 108 107 110 114 119 119 110 109 113 114 106 101 99 95 93 92
90 92 91 88 86 85 87 84 90 88 90 93 96 97 97 100 100 105 107 105 103 100 99 98 96 90 91 96 104 108 111 114 116 117 118 107 101 97 96 96 96 93 90 89 91
96 100 93 92 89 90 94 95 100 95 98 97 97 99 100 100 98 99 100 100 100 100 96 98 98 94 90 91 93 95 97 99 103 104 104 103 88 87 94 95 93 91 89 90 92
96 98 98 95 93 95 95 96 95 95 97 99 102 103 102 99 97 92 93 92 93 93 93 93 90 90 88 88 89 88 91 93 95 94 90 95 81 84 87 91 90 86 87 90 93
107 101 99 98 96 99 96 97 98 99 100 103 100 99 95 92 95 89 91 89 88 88 88 88 82 87 84 84 87 85 88 89 89 89 91 87 80 79 85 82 81 82 82 87 92
100 105 100 99 100 98 97 97 95 96 99 98 95 94 90 89 89 89 88 86 84 84 86 86 82 83 83 84 85 81 82 86 87 85 88 82 81 79 78 75 77 77 79 81 85
96 98 96 92 94 96 98 99 98 98 95 93 90 90 90 88 86 84 85 87 82 82 83 84 82 82 79 80 79 76 74 79 80 79 79 80 73 77 73 72 72 74 77 78 80
94 92 92 91 93 94 99 99 97 93 91 91 87 85 86 85 85 83 81 79 80 83 82 80 80 77 68 72 74 71 78 79 80 80 78 79 78 82 84 85 83 83 83 84 82
Wind_Direction
315 309 305 303 298 287 277 269 267 267 267 266 267 271 275 277 280 277 278 284 289 290 293 294 297 300 299 300 295 295 291 290 291 288 287 287 288 288 289 287 285 282 281 281 282
315 313 312 308 304 299 293 282 270 267 266 267 266 267 269 273 277 277 273 278 282 284 288 292 293 297 297 296 295 290 288 290 293 290 288 285 283 283 287 289 287 284 281 277 277
312 307 306 307 304 296 293 289 283 274 266 262 263 267 269 270 272 271 268 273 273 275 281 284 287 290 290 292 290 286 284 286 286 284 281 283 282 284 282 280 281 284 284 282 276
323 316 307 299 297 299 293 288 282 275 272 271 270 267 266 265 265 263 262 267 270 274 277 278 281 282 283 286 285 282 277 279 282 284 281 281 280 286 289 284 282 283 281 278 277
320 317 309 301 301 295 291 289 283 277 272 270 269 270 271 268 266 263 264 265 267 271 274 276 278 280 283 281 276 277 274 278 283 282 277 286 281 277 285 282 283 280 280 282 283
311 311 308 300 295 293 291 287 282 279 276 271 269 268 266 268 267 268 270 273 275 277 278 281 282 282 283 280 272 275 278 283 285 285 285 286 287 287 284 289 288 285 281 281 281
308 303 303 299 305 289 291 288 285 281 279 277 275 274 271 270 272 271 272 274 277 278 280 285 279 279 281 281 280 280 281 282 282 282 284 285 287 283 282 283 282 282 281 280 278
305 300 295 296 300 300 298 290 280 278 279 278 275 278 280 279 277 280 283 283 283 282 283 283 283 282 284 284 281 282 282 282 282 285 286 286 286 284 282 279 277 275 275 277 279
300 301 295 292 291 291 295 294 292 289 284 275 275 272 281 277 279 279 281 279 279 282 281 284 283 283 278 280 282 279 280 283 283 282 283 284 283 280 280 280 278 278 275 275 275
295 294 296 294 291 290 293 293 292 293 287 285 280 286 283 280 286 285 288 285 282 285 283 285 282 280 277 279 277 278 278 280 282 283 283 284 283 281 281 280 279 277 272 273 271
288 290 290 293 289 290 288 290 287 291 287 287 285 287 284 283 285 292 292 294 293 293 291 290 285 284 285 284 284 287 290 286 282 283 282 280 285 290 288 285 280 278 276 274 273
287 288 291 291 293 293 295 295 292 289 291 291 289 291 293 294 292 292 292 291 292 290 292 291 289 286 284 288 288 289 288 288 288 291 292 293 295 294 292 289 283 279 278 276 276
298 301 300 300 300 298 299 301 300 297 294 290 295 297 295 294 289 288 288 287 290 290 288 293 287 289 288 288 291 288 288 286 289 292 291 291 293 292 295 286 281 277 276 278 275
317 313 315 311 310 308 309 306 301 295 290 289 293 294 292 293 283 285 287 283 283 284 284 286 284 286 286 287 287 288 289 290 290 289 291 293 288 291 289 293 287 279 274 274 275
323 321 312 309 314 311 307 303 304 302 294 289 289 291 288 286 285 284 284 283 282 283 286 285 282 283 285 286 287 288 288 287 288 289 289 292 288 290 287 286 288 283 278 274 271
315 310 308 308 307 304 302 301 300 299 298 301 298 295 291 286 285 284 284 284 284 284 285 285 285 284 284 285 285 284 283 284 283 282 285 285 286 289 285 285 285 285 281 272 270
323 313 308 306 306 301 300 299 296 293 294 295 299 297 296 293 289 290 288 285 284 283 280 279 280 282 280 280 280 281 281 281 282 280 282 283 285 287 282 282 283 282 280 276 271
320 316 319 321 303 304 302 297 295 292 290 292 295 294 293 291 294 292 290 286 284 284 281 277 277 280 279 280 279 279 279 280 280 280 280 281 284 283 281 282 284 280 279 279 277
312 316 318 314 315 310 306 298 295 293 292 293 293 292 291 291 293 291 289 287 287 287 285 278 276 278 279 279 280 281 280 280 281 281 280 280 280 281 282 282 281 279 275 273 273
312 312 308 310 312 310 299 299 303 293 293 292 292 293 293 293 294 293 292 290 287 286 284 281 278 276 277 279 279 279 278 278 278 279 278 280 281 281 282 279 275 272 271 270 270
304 309 312 309 307 305 305 296 301 298 297 296 296 295 295 294 293 292 292 291 289 288 286 284 284 283 281 279 279 278 278 278 278 279 279 280 279 279 278 275 272 271 271 269 268
302 307 310 309 306 303 302 301 300 296 297 298 298 297 296 294 291 291 291 289 288 288 287 286 285 283 282 280 279 278 279 279 279 278 279 279 278 277 274 272 271 272 271 269 267
305 307 306 308 303 304 300 299 297 297 299 299 299 299 297 296 294 291 290 289 288 287 288 286 286 286 283 283 282 279 278 279 279 280 280 278 279 275 272 272 273 273 270 267 265
301 303 305 306 302 299 300 298 297 299 300 299 298 297 296 296 295 294 292 292 290 289 288 288 289 285 285 283 281 281 280 280 279 280 278 281 277 278 272 272 272 271 270 268 266
300 302 303 304 303 301 300 298 298 299 300 300 299 298 297 297 296 297 294 292 291 290 290 289 287 285 284 282 281 280 280 279 278 278 279 278 280 275 276 277 276 274 272 270 269
302 302 304 302 299 299 299 300 301 301 301 300 299 298 299 299 297 294 293 293 292 290 288 287 286 284 284 283 282 282 282 278 279 278 277 276 276 277 277 278 276 276 277 275 273
302 303 301 300 300 301 300 301 301 302 303 302 300 300 299 299 298 297 296 294 292 290 288 286 284 282 282 282 282 285 281 282 280 280 280 278 278 279 279 277 276 278 277 275 273
Height
10802 10798 10794 10790 10787 10784 10782 10780 10780 10779 10778 10776 10775 10774 10772 10770 10769 10768 10764 10762 10760 10758 10756 10754 10751 10749 10746 10745 10742 10741 10737 10734 10733 10731 10729 10727 10726 10724 10721 10718 10716 10713 10712 10713 10710
10797 10793 10789 10785 10781 10778 10775 10773 10771 10770 10769 10769 10767 10765 10763 10762 10761 10760 10757 10754 10752 10750 10748 10746 10744 10741 10738 10736 10734 10734 10729 10727 10725 10724 10722 10720 10719 10717 10715 10712 10708 10707 10704 10703 10702
10793 10789 10785 10781 10778 10774 10770 10767 10765 10763 10761 10759 10757 10756 10755 10754 10752 10750 10748 10745 10743 10741 10739 10737 10734 10732 10729 10726 10725 10724 10720 10719 10716 10715 10714 10711 10710 10709 10707 10702 10699 10698 10697 10696 10695
10788 10784 10780 10776 10773 10769 10766 10762 10759 10757 10754 10753 10750 10748 10745 10743 10742 10738 10738 10736 10734 10732 10729 10727 10724 10722 10718 10716 10714 10714 10710 10708 10706 10706 10705 10703 10701 10700 10696 10691 10689 10689 10687 10685 10683
10781 10776 10772 10768 10766 10763 10760 10757 10754 10751 10747 10744 10742 10740 10738 10735 10733 10731 10728 10726 10724 10721 10719 10716 10713 10711 10708 10705 10703 10702 10700 10697 10695 10693 10694 10694 10690 10689 10681 10678 10680 10677 10675 10674 10672
10776 10771 10765 10761 10758 10755 10753 10751 10748 10744 10741 10737 10734 10731 10728 10726 10723 10721 10719 10717 10714 10710 10707 10705 10702 10699 10696 10694 10692 10689 10688 10685 10682 10679 10681 10680 10679 10676 10664 10664 10662 10661 10660 10659 10658
10766 10763 10758 10754 10750 10747 10744 10742 10740 10737 10733 10729 10726 10722 10718 10715 10713 10710 10707 10705 10702 10698 10695 10692 10688 10686 10682 10679 10678 10675 10676 10674 10666 10664 10666 10664 10669 10659 10656 10652 10647 10645 10643 10641 10640
10756 10752 10749 10745 10742 10739 10736 10732 10729 10726 10723 10719 10714 10711 10708 10703 10702 10700 10695 10692 10688 10684 10680 10677 10674 10672 10668 10664 10662 10660 10661 10656 10648 10647 10648 10646 10656 10639 10638 10635 10631 10627 10624 10622 10621
10744 10742 10739 10736 10733 10729 10725 10721 10718 10714 10710 10706 10703 10699 10696 10691 10689 10686 10683 10677 10674 10670 10666 10661 10658 10655 10650 10646 10647 10642 10644 10640 10635 10629 10630 10627 10634 10620 10618 10616 10613 10610 10606 10602 10602
10732 10729 10727 10725 10720 10716 10712 10709 10705 10701 10692 10691 10690 10687 10682 10679 10675 10669 10666 10661 10657 10653 10649 10645 10641 10636 10632 10629 10629 10624 10624 10623 10619 10615 10612 10613 10613 10601 10597 10597 10592 10587 10583 10583 10583
10719 10715 10713 10711 10707 10703 10698 10695 10692 10689 10674 10677 10677 10672 10668 10663 10659 10653 10649 10645 10641 10637 10633 10628 10624 10619 10616 10613 10613 10610 10608 10606 10600 10600 10601 10598 10599 10586 10580 10579 10570 10564 10561 10564 10561
10704 10701 10699 10697 10693 10689 10685 10680 10677 10677 10663 10660 10660 10657 10655 10650 10644 10640 10635 10631 10628 10624 10621 10617 10611 10607 10602 10600 10597 10595 10593 10590 10588 10583 10583 10584 10587 10577 10567 10562 10551 10545 10541 10540 10541
10694 10691 10688 10683 10681 10677 10672 10668 10664 10663 10661 10648 10645 10643 10639 10633 10630 10625 10622 10617 10613 10609 10606 10604 10597 10590 10587 10583 10579 10577 10574 10571 10569 10565 10565 10567 10574 10564 10556 10548 10539 10527 10524 10522 10522
10688 10685 10679 10672 10671 10666 10662 10657 10654 10652 10652 10644 10639 10632 10627 10621 10616 10612 10607 10602 10597 10592 10589 10590 10579 10574 10569 10565 10556 10559 10549 10548 10547 10544 10545 10544 10550 10552 10542 10531 10518 10511 10508 10505 10504
10679 10676 10671 10668 10661 10655 10652 10646 10642 10637 10636 10633 10626 10619 10612 10607 10602 10595 10590 10585 10580 10574 10570 10570 10564 10557 10551 10543 10535 10534 10528 10524 10522 10521 10521 10526 10510 10537 10528 10514 10500 10491 10487 10484 10483
10669 10667 10660 10655 10652 10645 10638 10632 10626 10620 10617 10613 10608 10602 10595 10588 10583 10578 10571 10563 10556 10553 10550 10546 10541 10535 10528 10521 10514 10509 10504 10499 10498 10496 10498 10497 10487 10515 10500 10492 10482 10475 10469 10465 10462
10657 10653 10649 10640 10633 10628 10621 10615 10610 10601 10598 10593 10586 10580 10575 10566 10563 10556 10551 10542 10530 10527 10526 10522 10516 10510 10503 10495 10490 10484 10479 10473 10471 10471 10471 10470 10468 10482 10466 10464 10459 10453 10447 10442 10438
10640 10637 10632 10625 10618 10610 10603 10596 10589 10583 10577 10570 10564 10557 10551 10544 10539 10531 10525 10518 10505 10494 10494 10494 10494 10482 10478 10469 10464 10459 10452 10443 10435 10442 10442 10443 10450 10449 10437 10431 10427 10421 10418 10418 10417
10623 10615 10612 10602 10598 10592 10585 10575 10567 10562 10556 10547 10539 10531 10527 10516 10508 10503 10497 10492 10481 10472 10460 10455 10462 10457 10449 10440 10435 10434 10425 10415 10404 10404 10401 10413 10417 10415 10406 10400 10393 10388 10386 10386 10386
10606 10596 10591 10581 10573 10568 10561 10552 10541 10533 10527 10518 10512 10507 10497 10488 10477 10467 10464 10458 10447 10441 10431 10421 10424 10429 10418 10411 10406 10400 10395 10386 10377 10366 10364 10379 10383 10379 10372 10362 10354 10352 10355 10359 10360
10593 10581 10571 10560 10551 10543 10534 10526 10516 10507 10494 10488 10481 10473 10464 10457 10450 10440 10432 10423 10413 10406 10397 10387 10385 10395 10388 10383 10374 10366 10357 10351 10342 10334 10328 10340 10354 10349 10338 10323 10318 10320 10326 10330 10332
10574 10561 10552 10540 10531 10523 10513 10503 10492 10479 10470 10461 10451 10441 10433 10423 10419 10409 10400 10387 10381 10372 10365 10353 10348 10354 10354 10349 10344 10335 10327 10318 10308 10304 10301 10299 10325 10320 10299 10292 10293 10296 10298 10297 10297
10548 10537 10526 10517 10508 10496 10488 10479 10465 10455 10447 10436 10426 10416 10402 10393 10384 10383 10372 10360 10351 10341 10333 10324 10322 10316 10317 10314 10306 10302 10294 10288 10277 10273 10278 10264 10293 10279 10270 10262 10264 10270 10268 10266 10264
10525 10516 10506 10495 10485 10473 10465 10454 10438 10429 10421 10408 10399 10386 10376 10367 10350 10353 10339 10332 10322 10310 10301 10293 10299 10285 10286 10281 10272 10273 10263 10258 10251 10248 10240 10243 10252 10249 10235 10243 10244 10241 10242 10238 10233
10499 10490 10482 10467 10453 10442 10431 10421 10414 10401 10389 10379 10369 10354 10346 10339 10329 10317 10308 10302 10295 10284 10274 10267 10269 10261 10257 10250 10243 10247 10241 10227 10223 10222 10212 10220 10219 10215 10216 10217 10213 10213 10212 10210 10208
10470 10464 10457 10446 10431 10419 10402 10390 10381 10370 10362 10351 10339 10327 10317 10309 10300 10293 10283 10269 10267 10258 10250 10241 10240 10233 10233 10219 10218 10219 10211 10200 10196 10196 10195 10191 10197 10187 10192 10192 10189 10186 10185 10186 10184
10443 10437 10428 10422 10406 10393 10373 10363 10352 10343 10334 10317 10310 10304 10291 10282 10271 10262 10255 10248 10239 10227 10222 10215 10208 10207 10215 10201 10196 10198 10181 10176 10173 10169 10171 10169 10172 10168 10165 10163 10163 10163 10163 10160 10158